Time,TemperatureF,DewpointF,PressureIn,WindDirection,WindDirectionDegrees,WindSpeedMPH,WindSpeedGustMPH,Humidity,HourlyPrecipIn,Conditions,Clouds,dailyrainin,SoftwareType,DateUTC
2013-06-29 00:00:00,80.8,69.7,29.51,NNW,339,4.0,10.0,69,0.00,,,0.00,Wunderground v.1.15,2013-06-29 05:00:00,
2013-06-29 00:10:00,80.5,69.0,29.51,North,350,3.0,10.0,68,0.00,,,0.00,Wunderground v.1.15,2013-06-29 05:10:00,
2013-06-29 00:15:00,80.4,69.3,29.50,NNW,342,3.0,10.0,69,0.00,,,0.00,Wunderground v.1.15,2013-06-29 05:15:00,
2013-06-29 00:20:00,80.3,68.8,29.50,NNW,346,3.0,3.0,68,0.00,,,0.00,Wunderground v.1.15,2013-06-29 05:20:00,
2013-06-29 00:25:00,80.2,69.1,29.50,NNW,336,3.0,10.0,69,0.00,,,0.00,Wunderground v.1.15,2013-06-29 05:25:00,
2013-06-29 00:35:00,80.2,68.7,29.49,NNW,336,2.0,10.0,68,0.00,,,0.00,Wunderground v.1.15,2013-06-29 05:35:00,
2013-06-29 00:40:00,79.9,68.4,29.49,North,9,2.0,10.0,68,0.00,,,0.00,Wunderground v.1.15,2013-06-29 05:40:00,
2013-06-29 00:45:00,79.9,68.0,29.49,North,360,2.0,10.0,67,0.00,,,0.00,Wunderground v.1.15,2013-06-29 05:45:00,
2013-06-29 00:50:00,80.1,67.7,29.49,North,360,3.0,3.0,66,0.00,,,0.00,Wunderground v.1.15,2013-06-29 05:50:00,
2013-06-29 00:55:00,80.0,67.6,29.49,NNW,346,2.0,10.0,66,0.00,,,0.00,Wunderground v.1.15,2013-06-29 05:55:00,
2013-06-29 01:00:00,79.7,67.8,29.49,NNW,333,1.0,1.0,67,0.00,,,0.00,Wunderground v.1.15,2013-06-29 06:00:00,
2013-06-29 01:05:00,79.3,67.4,29.49,NNW,333,0.0,10.0,67,0.00,,,0.00,Wunderground v.1.15,2013-06-29 06:05:00,
2013-06-29 01:15:00,78.7,67.2,29.49,NNW,333,0.0,10.0,68,0.00,,,0.00,Wunderground v.1.15,2013-06-29 06:15:00,
2013-06-29 01:20:00,78.7,67.2,29.49,NNW,333,0.0,10.0,68,0.00,,,0.00,Wunderground v.1.15,2013-06-29 06:20:00,
2013-06-29 01:25:00,78.5,67.1,29.49,NNW,333,0.0,10.0,68,0.00,,,0.00,Wunderground v.1.15,2013-06-29 06:25:00,
2013-06-29 01:30:00,78.4,67.0,29.49,NNW,333,0.0,10.0,68,0.00,,,0.00,Wunderground v.1.15,2013-06-29 06:30:00,
2013-06-29 01:35:00,78.2,66.8,29.49,NNW,333,0.0,10.0,68,0.00,,,0.00,Wunderground v.1.15,2013-06-29 06:35:00,
2013-06-29 01:45:00,77.7,67.1,29.49,NNW,333,0.0,10.0,70,0.00,,,0.00,Wunderground v.1.15,2013-06-29 06:45:00,
2013-06-29 01:50:00,77.5,66.9,29.49,NNW,333,0.0,10.0,70,0.00,,,0.00,Wunderground v.1.15,2013-06-29 06:50:00,
2013-06-29 01:55:00,77.5,66.9,29.49,NNW,333,0.0,10.0,70,0.00,,,0.00,Wunderground v.1.15,2013-06-29 06:55:00,
2013-06-29 02:00:00,77.4,66.8,29.48,NNW,333,0.0,10.0,70,0.00,,,0.00,Wunderground v.1.15,2013-06-29 07:00:00,
2013-06-29 02:05:00,77.2,66.7,29.48,NNW,333,0.0,10.0,70,0.00,,,0.00,Wunderground v.1.15,2013-06-29 07:05:00,
2013-06-29 02:15:00,77.1,66.6,29.48,NNW,333,0.0,10.0,70,0.00,,,0.00,Wunderground v.1.15,2013-06-29 07:15:00,
2013-06-29 02:25:00,76.7,66.2,29.48,NNW,333,0.0,10.0,70,0.00,,,0.00,Wunderground v.1.15,2013-06-29 07:25:00,
2013-06-29 02:30:00,76.4,66.3,29.48,NNW,333,0.0,10.0,71,0.00,,,0.00,Wunderground v.1.15,2013-06-29 07:30:00,
2013-06-29 02:35:00,76.1,66.0,29.48,NNW,333,0.0,10.0,71,0.00,,,0.00,Wunderground v.1.15,2013-06-29 07:35:00,
2013-06-29 02:40:00,75.9,66.2,29.48,NNW,333,0.0,10.0,72,0.00,,,0.00,Wunderground v.1.15,2013-06-29 07:40:00,
2013-06-29 02:50:00,75.6,65.9,29.48,NNW,333,0.0,10.0,72,0.00,,,0.00,Wunderground v.1.15,2013-06-29 07:50:00,
2013-06-29 02:55:00,75.6,66.3,29.48,NNW,333,0.0,10.0,73,0.00,,,0.00,Wunderground v.1.15,2013-06-29 07:55:00,
2013-06-29 03:00:00,75.4,66.1,29.47,NNW,333,0.0,10.0,73,0.00,,,0.00,Wunderground v.1.15,2013-06-29 08:00:00,
2013-06-29 03:05:00,75.2,66.3,29.47,NNW,333,0.0,10.0,74,0.00,,,0.00,Wunderground v.1.15,2013-06-29 08:05:00,
2013-06-29 03:10:00,75.0,66.1,29.47,NNW,333,0.0,10.0,74,0.00,,,0.00,Wunderground v.1.15,2013-06-29 08:10:00,
2013-06-29 03:20:00,74.9,66.4,29.47,NNW,333,0.0,10.0,75,0.00,,,0.00,Wunderground v.1.15,2013-06-29 08:20:00,
2013-06-29 03:30:00,74.6,66.5,29.47,NNW,333,0.0,10.0,76,0.00,,,0.00,Wunderground v.1.15,2013-06-29 08:30:00,
2013-06-29 03:35:00,74.5,66.4,29.47,NNW,333,0.0,10.0,76,0.00,,,0.00,Wunderground v.1.15,2013-06-29 08:35:00,
2013-06-29 03:40:00,74.1,66.4,29.47,NNW,333,0.0,10.0,77,0.00,,,0.00,Wunderground v.1.15,2013-06-29 08:40:00,
2013-06-29 03:45:00,73.7,66.4,29.47,NNW,333,0.0,10.0,78,0.00,,,0.00,Wunderground v.1.15,2013-06-29 08:45:00,
2013-06-29 03:50:00,73.3,66.4,29.47,NNW,333,0.0,10.0,79,0.00,,,0.00,Wunderground v.1.15,2013-06-29 08:50:00,
2013-06-29 03:55:00,73.0,66.5,29.47,NNW,333,0.0,10.0,80,0.00,,,0.00,Wunderground v.1.15,2013-06-29 08:55:00,
2013-06-29 04:00:00,72.9,66.7,29.47,NNW,333,0.0,10.0,81,0.00,,,0.00,Wunderground v.1.15,2013-06-29 09:00:00,
2013-06-29 04:05:00,73.0,66.8,29.47,NNW,333,0.0,10.0,81,0.00,,,0.00,Wunderground v.1.15,2013-06-29 09:05:00,
2013-06-29 04:10:00,73.0,66.8,29.47,NNW,333,0.0,10.0,81,0.00,,,0.00,Wunderground v.1.15,2013-06-29 09:10:00,
2013-06-29 04:15:00,72.9,66.7,29.47,NNW,333,0.0,10.0,81,0.00,,,0.00,Wunderground v.1.15,2013-06-29 09:15:00,
2013-06-29 04:25:00,72.7,66.5,29.47,NNW,333,0.0,10.0,81,0.00,,,0.00,Wunderground v.1.15,2013-06-29 09:25:00,
2013-06-29 04:30:00,72.7,66.9,29.47,NNW,333,0.0,10.0,82,0.00,,,0.00,Wunderground v.1.15,2013-06-29 09:30:00,
2013-06-29 04:35:00,72.5,66.3,29.47,NNW,333,0.0,10.0,81,0.00,,,0.00,Wunderground v.1.15,2013-06-29 09:35:00,
2013-06-29 04:40:00,72.4,66.6,29.47,NNW,333,0.0,10.0,82,0.00,,,0.00,Wunderground v.1.15,2013-06-29 09:40:00,
2013-06-29 04:45:00,72.3,66.5,29.48,NNW,333,0.0,10.0,82,0.00,,,0.00,Wunderground v.1.15,2013-06-29 09:45:00,
2013-06-29 04:50:00,72.3,66.5,29.48,NNW,333,0.0,10.0,82,0.00,,,0.00,Wunderground v.1.15,2013-06-29 09:50:00,
2013-06-29 04:55:00,72.3,66.5,29.48,NNW,333,0.0,10.0,82,0.00,,,0.00,Wunderground v.1.15,2013-06-29 09:55:00,
2013-06-29 05:05:00,72.5,66.3,29.48,NNW,333,0.0,10.0,81,0.00,,,0.00,Wunderground v.1.15,2013-06-29 10:05:00,
2013-06-29 05:10:00,72.3,66.1,29.48,NNW,333,0.0,10.0,81,0.00,,,0.00,Wunderground v.1.15,2013-06-29 10:10:00,
2013-06-29 05:15:00,72.2,66.4,29.48,NNW,333,0.0,10.0,82,0.00,,,0.00,Wunderground v.1.15,2013-06-29 10:15:00,
2013-06-29 05:20:00,72.3,66.5,29.48,NNW,333,0.0,10.0,82,0.00,,,0.00,Wunderground v.1.15,2013-06-29 10:20:00,
2013-06-29 05:30:00,72.4,66.6,29.48,NNW,333,0.0,10.0,82,0.00,,,0.00,Wunderground v.1.15,2013-06-29 10:30:00,
2013-06-29 05:35:00,72.4,66.2,29.48,NNW,333,0.0,10.0,81,0.00,,,0.00,Wunderground v.1.15,2013-06-29 10:35:00,
2013-06-29 05:40:00,72.4,66.2,29.48,NNW,333,0.0,10.0,81,0.00,,,0.00,Wunderground v.1.15,2013-06-29 10:40:00,
2013-06-29 05:45:00,72.5,66.3,29.48,NNW,333,0.0,10.0,81,0.00,,,0.00,Wunderground v.1.15,2013-06-29 10:45:00,
2013-06-29 05:50:00,72.6,66.4,29.48,NNW,333,0.0,10.0,81,0.00,,,0.00,Wunderground v.1.15,2013-06-29 10:50:00,
2013-06-29 05:55:00,72.6,66.4,29.48,NNW,333,0.0,10.0,81,0.00,,,0.00,Wunderground v.1.15,2013-06-29 10:55:00,
2013-06-29 06:00:00,72.7,66.5,29.48,NNW,333,0.0,10.0,81,0.00,,,0.00,Wunderground v.1.15,2013-06-29 11:00:00,
2013-06-29 06:05:00,72.8,66.6,29.48,NNW,333,0.0,10.0,81,0.00,,,0.00,Wunderground v.1.15,2013-06-29 11:05:00,
2013-06-29 06:15:00,73.0,66.8,29.48,NNW,333,0.0,10.0,81,0.00,,,0.00,Wunderground v.1.15,2013-06-29 11:15:00,
2013-06-29 06:20:00,73.1,66.6,29.48,NNW,333,0.0,10.0,80,0.00,,,0.00,Wunderground v.1.15,2013-06-29 11:20:00,
2013-06-29 06:30:00,73.4,66.9,29.48,NW,325,0.0,10.0,80,0.00,,,0.00,Wunderground v.1.15,2013-06-29 11:30:00,
2013-06-29 06:35:00,73.6,67.0,29.48,NW,321,1.0,10.0,80,0.00,,,0.00,Wunderground v.1.15,2013-06-29 11:35:00,
2013-06-29 06:40:00,73.8,67.2,29.48,NW,316,0.0,10.0,80,0.00,,,0.00,Wunderground v.1.15,2013-06-29 11:40:00,
2013-06-29 06:50:00,74.3,67.4,29.48,NW,307,0.0,10.0,79,0.00,,,0.00,Wunderground v.1.15,2013-06-29 11:50:00,
2013-06-29 06:55:00,74.5,67.6,29.48,WNW,300,1.0,10.0,79,0.00,,,0.00,Wunderground v.1.15,2013-06-29 11:55:00,
2013-06-29 07:00:00,74.6,67.7,29.48,WNW,298,3.0,3.0,79,0.00,,,0.00,Wunderground v.1.15,2013-06-29 12:00:00,
2013-06-29 07:05:00,74.7,67.4,29.48,WNW,302,3.0,10.0,78,0.00,,,0.00,Wunderground v.1.15,2013-06-29 12:05:00,
2013-06-29 07:10:00,75.1,67.4,29.48,WNW,291,2.0,10.0,77,0.00,,,0.00,Wunderground v.1.15,2013-06-29 12:10:00,
2013-06-29 07:20:00,75.6,67.5,29.48,WNW,288,3.0,3.0,76,0.00,,,0.00,Wunderground v.1.15,2013-06-29 12:20:00,
2013-06-29 07:25:00,76.0,67.5,29.48,WNW,299,3.0,5.0,75,0.00,,,0.00,Wunderground v.1.15,2013-06-29 12:25:00,
2013-06-29 07:35:00,76.7,67.4,29.49,WNW,283,3.0,10.0,73,0.00,,,0.00,Wunderground v.1.15,2013-06-29 12:35:00,
2013-06-29 07:40:00,76.9,67.2,29.49,WNW,287,3.0,10.0,72,0.00,,,0.00,Wunderground v.1.15,2013-06-29 12:40:00,
2013-06-29 07:45:00,77.3,67.2,29.48,NW,306,5.0,10.0,71,0.00,,,0.00,Wunderground v.1.15,2013-06-29 12:45:00,
2013-06-29 07:55:00,77.9,67.3,29.48,WNW,294,4.0,10.0,70,0.00,,,0.00,Wunderground v.1.15,2013-06-29 12:55:00,
2013-06-29 08:00:00,78.3,67.3,29.49,WNW,303,3.0,3.0,69,0.00,,,0.00,Wunderground v.1.15,2013-06-29 13:00:00,
2013-06-29 08:05:00,78.7,66.8,29.49,NW,315,5.0,9.0,67,0.00,,,0.00,Wunderground v.1.15,2013-06-29 13:05:00,
2013-06-29 08:10:00,78.7,66.8,29.49,NW,315,6.0,6.0,67,0.00,,,0.00,Wunderground v.1.15,2013-06-29 13:10:00,
2013-06-29 08:15:00,79.0,66.7,29.49,NW,323,5.0,10.0,66,0.00,,,0.00,Wunderground v.1.15,2013-06-29 13:15:00,
2013-06-29 08:20:00,79.2,66.4,29.49,WNW,299,5.0,5.0,65,0.00,,,0.00,Wunderground v.1.15,2013-06-29 13:20:00,
2013-06-29 08:30:00,79.6,66.8,29.49,NW,306,6.0,6.0,65,0.00,,,0.00,Wunderground v.1.15,2013-06-29 13:30:00,
2013-06-29 08:40:00,79.9,67.1,29.49,NNW,335,6.0,6.0,65,0.00,,,0.00,Wunderground v.1.15,2013-06-29 13:40:00,
2013-06-29 08:45:00,80.6,66.8,29.49,NW,317,5.0,10.0,63,0.00,,,0.00,Wunderground v.1.15,2013-06-29 13:45:00,
2013-06-29 08:50:00,80.7,66.9,29.49,NW,316,5.0,10.0,63,0.00,,,0.00,Wunderground v.1.15,2013-06-29 13:50:00,
2013-06-29 08:55:00,80.6,66.8,29.49,NW,313,6.0,10.0,63,0.00,,,0.00,Wunderground v.1.15,2013-06-29 13:55:00,
2013-06-29 09:00:00,80.7,66.5,29.49,NNW,348,6.0,6.0,62,0.00,,,0.00,Wunderground v.1.15,2013-06-29 14:00:00,
2013-06-29 09:05:00,80.9,66.7,29.49,NNW,330,5.0,7.0,62,0.00,,,0.00,Wunderground v.1.15,2013-06-29 14:05:00,
2013-06-29 09:10:00,81.1,66.8,29.49,West,268,5.0,10.0,62,0.00,,,0.00,Wunderground v.1.15,2013-06-29 14:10:00,
2013-06-29 09:15:00,81.3,66.6,29.49,NW,322,6.0,10.0,61,0.00,,,0.00,Wunderground v.1.15,2013-06-29 14:15:00,
2013-06-29 09:20:00,81.7,66.9,29.49,WNW,300,6.0,6.0,61,0.00,,,0.00,Wunderground v.1.15,2013-06-29 14:20:00,
2013-06-29 09:30:00,81.7,66.5,29.49,NW,326,5.0,5.0,60,0.00,,,0.00,Wunderground v.1.15,2013-06-29 14:30:00,
2013-06-29 09:40:00,82.1,66.8,29.49,West,279,5.0,5.0,60,0.00,,,0.00,Wunderground v.1.15,2013-06-29 14:40:00,
2013-06-29 09:45:00,82.4,67.6,29.49,NW,325,5.0,6.0,61,0.00,,,0.00,Wunderground v.1.15,2013-06-29 14:45:00,
2013-06-29 09:50:00,82.7,67.4,29.49,NW,308,5.0,5.0,60,0.00,,,0.00,Wunderground v.1.15,2013-06-29 14:50:00,
2013-06-29 09:55:00,83.2,67.4,29.49,NW,321,4.0,10.0,59,0.00,,,0.00,Wunderground v.1.15,2013-06-29 14:55:00,
2013-06-29 10:00:00,83.6,67.8,29.48,North,9,3.0,10.0,59,0.00,,,0.00,Wunderground v.1.15,2013-06-29 15:00:00,
2013-06-29 10:10:00,83.9,67.5,29.48,WNW,302,5.0,10.0,58,0.00,,,0.00,Wunderground v.1.15,2013-06-29 15:10:00,
2013-06-29 10:15:00,83.8,67.9,29.49,NW,313,5.0,10.0,59,0.00,,,0.00,Wunderground v.1.15,2013-06-29 15:15:00,
2013-06-29 10:20:00,84.1,67.7,29.49,WNW,302,5.0,5.0,58,0.00,,,0.00,Wunderground v.1.15,2013-06-29 15:20:00,
2013-06-29 10:25:00,84.3,67.4,29.49,WSW,252,4.0,10.0,57,0.00,,,0.00,Wunderground v.1.15,2013-06-29 15:25:00,
2013-06-29 10:35:00,85.1,67.6,29.49,North,355,5.0,10.0,56,0.00,,,0.00,Wunderground v.1.15,2013-06-29 15:35:00,
2013-06-29 10:40:00,85.0,67.5,29.49,West,269,6.0,10.0,56,0.00,,,0.00,Wunderground v.1.15,2013-06-29 15:40:00,
2013-06-29 10:45:00,85.1,67.1,29.49,WNW,287,7.0,10.0,55,0.00,,,0.00,Wunderground v.1.15,2013-06-29 15:45:00,
2013-06-29 10:50:00,85.3,66.8,29.49,NNW,328,7.0,10.0,54,0.00,,,0.00,Wunderground v.1.15,2013-06-29 15:50:00,
2013-06-29 10:55:00,85.3,67.3,29.49,North,5,7.0,10.0,55,0.00,,,0.00,Wunderground v.1.15,2013-06-29 15:55:00,
2013-06-29 11:00:00,85.9,67.3,29.49,North,360,6.0,10.0,54,0.00,,,0.00,Wunderground v.1.15,2013-06-29 16:00:00,
2013-06-29 11:05:00,86.0,66.9,29.49,WSW,255,6.0,10.0,53,0.00,,,0.00,Wunderground v.1.15,2013-06-29 16:05:00,
2013-06-29 11:10:00,86.5,67.3,29.49,NW,318,6.0,10.0,53,0.00,,,0.00,Wunderground v.1.15,2013-06-29 16:10:00,
2013-06-29 11:20:00,86.8,66.5,29.49,West,277,5.0,10.0,51,0.00,,,0.00,Wunderground v.1.15,2013-06-29 16:20:00,
2013-06-29 11:30:00,87.9,68.1,29.49,NW,312,6.0,6.0,52,0.00,,,0.00,Wunderground v.1.15,2013-06-29 16:30:00,
2013-06-29 11:35:00,88.2,67.2,29.49,West,267,4.0,10.0,50,0.00,,,0.00,Wunderground v.1.15,2013-06-29 16:35:00,
2013-06-29 11:40:00,88.3,66.7,29.49,WNW,286,6.0,10.0,49,0.00,,,0.00,Wunderground v.1.15,2013-06-29 16:40:00,
2013-06-29 11:45:00,88.4,67.4,29.49,North,350,6.0,10.0,50,0.00,,,0.00,Wunderground v.1.15,2013-06-29 16:45:00,
2013-06-29 11:55:00,88.7,66.5,29.49,WNW,300,6.0,10.0,48,0.00,,,0.00,Wunderground v.1.15,2013-06-29 16:55:00,
2013-06-29 12:00:00,88.7,66.5,29.49,WNW,282,6.0,10.0,48,0.00,,,0.00,Wunderground v.1.15,2013-06-29 17:00:00,
2013-06-29 12:05:00,88.9,66.1,29.49,NW,318,5.0,10.0,47,0.00,,,0.00,Wunderground v.1.15,2013-06-29 17:05:00,
2013-06-29 12:10:00,88.9,65.4,29.49,West,275,6.0,10.0,46,0.00,,,0.00,Wunderground v.1.15,2013-06-29 17:10:00,
2013-06-29 12:15:00,88.4,65.6,29.48,NNW,327,5.0,10.0,47,0.00,,,0.00,Wunderground v.1.15,2013-06-29 17:15:00,
2013-06-29 12:25:00,88.9,66.7,29.48,WNW,296,4.0,10.0,48,0.00,,,0.00,Wunderground v.1.15,2013-06-29 17:25:00,
2013-06-29 12:35:00,88.7,65.3,29.48,WNW,293,5.0,10.0,46,0.00,,,0.00,Wunderground v.1.15,2013-06-29 17:35:00,
2013-06-29 12:40:00,88.6,65.8,29.48,NNE,24,4.0,4.0,47,0.00,,,0.00,Wunderground v.1.15,2013-06-29 17:40:00,
2013-06-29 12:45:00,89.1,66.9,29.48,WNW,287,2.0,10.0,48,0.00,,,0.00,Wunderground v.1.15,2013-06-29 17:45:00,
2013-06-29 12:50:00,89.8,65.6,29.48,WSW,252,3.0,10.0,45,0.00,,,0.00,Wunderground v.1.15,2013-06-29 17:50:00,
2013-06-29 13:00:00,90.4,67.4,29.47,WSW,239,6.0,10.0,47,0.00,,,0.00,Wunderground v.1.15,2013-06-29 18:00:00,
2013-06-29 13:05:00,90.2,66.0,29.47,WNW,292,6.0,10.0,45,0.00,,,0.00,Wunderground v.1.15,2013-06-29 18:05:00,
2013-06-29 13:10:00,89.9,67.0,29.47,NNE,30,3.0,3.0,47,0.00,,,0.00,Wunderground v.1.15,2013-06-29 18:10:00,
2013-06-29 13:15:00,90.1,65.9,29.47,WNW,292,4.0,13.0,45,0.00,,,0.00,Wunderground v.1.15,2013-06-29 18:15:00,
2013-06-29 13:20:00,90.5,65.6,29.47,WNW,294,7.0,7.0,44,0.00,,,0.00,Wunderground v.1.15,2013-06-29 18:20:00,
2013-06-29 13:30:00,90.1,62.5,29.47,NNW,330,7.0,10.0,40,0.00,,,0.00,Wunderground v.1.15,2013-06-29 18:30:00,
2013-06-29 13:40:00,89.9,63.0,29.47,WNW,287,6.0,13.0,41,0.00,,,0.00,Wunderground v.1.15,2013-06-29 18:40:00,
2013-06-29 13:45:00,90.3,62.7,29.46,NE,46,7.0,13.0,40,0.00,,,0.00,Wunderground v.1.15,2013-06-29 18:45:00,
2013-06-29 13:50:00,90.3,63.4,29.46,WNW,302,6.0,10.0,41,0.00,,,0.00,Wunderground v.1.15,2013-06-29 18:50:00,
2013-06-29 13:55:00,91.0,62.6,29.46,West,269,6.0,13.0,39,0.00,,,0.00,Wunderground v.1.15,2013-06-29 18:55:00,
2013-06-29 14:00:00,90.8,62.4,29.47,West,269,8.0,12.0,39,0.00,,,0.00,Wunderground v.1.15,2013-06-29 19:00:00,
2013-06-29 14:10:00,90.6,62.3,29.47,WNW,292,9.0,9.0,39,0.00,,,0.00,Wunderground v.1.15,2013-06-29 19:10:00,
2013-06-29 14:15:00,90.6,63.0,29.45,NW,323,8.0,10.0,40,0.00,,,0.00,Wunderground v.1.15,2013-06-29 19:15:00,
2013-06-29 14:20:00,90.2,64.0,29.45,NNW,344,8.0,11.0,42,0.00,,,0.00,Wunderground v.1.15,2013-06-29 19:20:00,
2013-06-29 14:25:00,90.2,63.3,29.45,NW,313,8.0,16.0,41,0.00,,,0.00,Wunderground v.1.15,2013-06-29 19:25:00,
2013-06-29 14:35:00,89.6,64.1,29.45,NW,326,8.0,10.0,43,0.00,,,0.00,Wunderground v.1.15,2013-06-29 19:35:00,
2013-06-29 14:45:00,90.2,64.7,29.45,West,265,5.0,10.0,43,0.00,,,0.00,Wunderground v.1.15,2013-06-29 19:45:00,
2013-06-29 14:50:00,90.4,65.5,29.45,NW,305,6.0,11.0,44,0.00,,,0.00,Wunderground v.1.15,2013-06-29 19:50:00,
2013-06-29 14:55:00,89.3,64.5,29.45,NNW,347,7.0,11.0,44,0.00,,,0.00,Wunderground v.1.15,2013-06-29 19:55:00,
2013-06-29 15:00:00,89.3,65.2,29.45,West,277,5.0,10.0,45,0.00,,,0.00,Wunderground v.1.15,2013-06-29 20:00:00,
2013-06-29 15:05:00,90.1,65.2,29.45,West,273,4.0,10.0,44,0.00,,,0.00,Wunderground v.1.15,2013-06-29 20:05:00,
2013-06-29 15:15:00,90.5,64.3,29.45,NW,304,9.0,10.0,42,0.00,,,0.00,Wunderground v.1.15,2013-06-29 20:15:00,
2013-06-29 15:20:00,90.1,63.9,29.45,NW,307,8.0,8.0,42,0.00,,,0.00,Wunderground v.1.15,2013-06-29 20:20:00,
2013-06-29 15:25:00,89.8,63.6,29.45,NNW,336,9.0,10.0,42,0.00,,,0.00,Wunderground v.1.15,2013-06-29 20:25:00,
2013-06-29 15:30:00,89.2,64.4,29.45,NNE,15,7.0,7.0,44,0.00,,,0.00,Wunderground v.1.15,2013-06-29 20:30:00,
2013-06-29 15:40:00,88.5,65.1,29.45,NNW,336,7.0,14.0,46,0.00,,,0.00,Wunderground v.1.15,2013-06-29 20:40:00,
2013-06-29 15:45:00,88.8,64.1,29.45,NNW,329,8.0,14.0,44,0.00,,,0.00,Wunderground v.1.15,2013-06-29 20:45:00,
2013-06-29 15:50:00,89.1,65.0,29.45,WNW,302,6.0,6.0,45,0.00,,,0.00,Wunderground v.1.15,2013-06-29 20:50:00,
2013-06-29 15:55:00,90.0,64.5,29.45,West,270,5.0,10.0,43,0.00,,,0.00,Wunderground v.1.15,2013-06-29 20:55:00,
2013-06-29 16:00:00,90.2,65.3,29.44,WNW,284,6.0,6.0,44,0.00,,,0.00,Wunderground v.1.15,2013-06-29 21:00:00,
2013-06-29 16:05:00,90.2,64.0,29.44,NW,313,4.0,10.0,42,0.00,,,0.00,Wunderground v.1.15,2013-06-29 21:05:00,
2013-06-29 16:10:00,89.9,63.7,29.44,West,273,5.0,5.0,42,0.00,,,0.00,Wunderground v.1.15,2013-06-29 21:10:00,
2013-06-29 16:15:00,90.2,64.0,29.44,WNW,293,6.0,6.0,42,0.00,,,0.00,Wunderground v.1.15,2013-06-29 21:15:00,
2013-06-29 16:25:00,90.2,62.6,29.44,NNW,340,8.0,13.0,40,0.00,,,0.00,Wunderground v.1.15,2013-06-29 21:25:00,
2013-06-29 16:30:00,89.9,63.0,29.44,WNW,298,7.0,12.0,41,0.00,,,0.00,Wunderground v.1.15,2013-06-29 21:30:00,
2013-06-29 16:40:00,89.9,62.3,29.44,NNW,337,7.0,7.0,40,0.00,,,0.00,Wunderground v.1.15,2013-06-29 21:40:00,
2013-06-29 16:45:00,90.0,61.7,29.44,West,281,6.0,10.0,39,0.00,,,0.00,Wunderground v.1.15,2013-06-29 21:45:00,
2013-06-29 16:50:00,90.2,61.9,29.44,NW,309,7.0,11.0,39,0.00,,,0.00,Wunderground v.1.15,2013-06-29 21:50:00,
2013-06-29 17:00:00,89.1,61.6,29.42,WNW,288,9.0,12.0,40,0.00,,,0.00,Wunderground v.1.15,2013-06-29 22:00:00,
2013-06-29 17:05:00,88.6,61.9,29.42,NW,310,6.0,12.0,41,0.00,,,0.00,Wunderground v.1.15,2013-06-29 22:05:00,
2013-06-29 17:10:00,88.5,61.8,29.42,WNW,293,7.0,7.0,41,0.00,,,0.00,Wunderground v.1.15,2013-06-29 22:10:00,
2013-06-29 17:15:00,88.4,62.4,29.42,WNW,284,7.0,10.0,42,0.00,,,0.00,Wunderground v.1.15,2013-06-29 22:15:00,
2013-06-29 17:25:00,88.5,62.5,29.42,West,272,5.0,6.0,42,0.00,,,0.00,Wunderground v.1.15,2013-06-29 22:25:00,
2013-06-29 17:35:00,88.4,61.0,29.42,WNW,302,6.0,13.0,40,0.00,,,0.00,Wunderground v.1.15,2013-06-29 22:35:00,
2013-06-29 17:40:00,88.4,61.7,29.42,North,5,6.0,6.0,41,0.00,,,0.00,Wunderground v.1.15,2013-06-29 22:40:00,
2013-06-29 17:45:00,88.4,61.7,29.42,NW,322,3.0,10.0,41,0.00,,,0.00,Wunderground v.1.15,2013-06-29 22:45:00,
2013-06-29 17:50:00,88.6,61.9,29.42,North,355,3.0,10.0,41,0.00,,,0.00,Wunderground v.1.15,2013-06-29 22:50:00,
2013-06-29 17:55:00,88.7,61.3,29.42,WNW,303,3.0,10.0,40,0.00,,,0.00,Wunderground v.1.15,2013-06-29 22:55:00,
2013-06-29 18:05:00,88.2,61.5,29.42,NNW,327,5.0,6.0,41,0.00,,,0.00,Wunderground v.1.15,2013-06-29 23:05:00,
2013-06-29 18:10:00,88.1,61.4,29.42,NW,307,6.0,6.0,41,0.00,,,0.00,Wunderground v.1.15,2013-06-29 23:10:00,
2013-06-29 18:15:00,88.0,62.0,29.42,NW,307,5.0,10.0,42,0.00,,,0.00,Wunderground v.1.15,2013-06-29 23:15:00,
2013-06-29 18:20:00,88.3,61.6,29.42,NNE,20,2.0,2.0,41,0.00,,,0.00,Wunderground v.1.15,2013-06-29 23:20:00,
2013-06-29 18:30:00,88.1,62.1,29.42,NW,321,2.0,2.0,42,0.00,,,0.00,Wunderground v.1.15,2013-06-29 23:30:00,
2013-06-29 18:40:00,88.1,62.1,29.42,NNW,345,2.0,2.0,42,0.00,,,0.00,Wunderground v.1.15,2013-06-29 23:40:00,
2013-06-29 18:45:00,87.7,61.8,29.42,WNW,294,2.0,6.0,42,0.00,,,0.00,Wunderground v.1.15,2013-06-29 23:45:00,
2013-06-29 18:50:00,87.3,61.4,29.42,WNW,300,2.0,10.0,42,0.00,,,0.00,Wunderground v.1.15,2013-06-29 23:50:00,
2013-06-29 18:55:00,87.1,61.9,29.42,WNW,301,4.0,10.0,43,0.00,,,0.00,Wunderground v.1.15,2013-06-29 23:55:00,
2013-06-29 19:00:00,86.6,61.4,29.42,NW,307,5.0,5.0,43,0.00,,,0.00,Wunderground v.1.15,2013-06-30 00:00:00,
2013-06-29 19:05:00,86.1,61.6,29.42,NW,318,5.0,10.0,44,0.00,,,0.00,Wunderground v.1.15,2013-06-30 00:05:00,
2013-06-29 19:15:00,86.3,61.8,29.42,WNW,298,1.0,6.0,44,0.00,,,0.00,Wunderground v.1.15,2013-06-30 00:15:00,
2013-06-29 19:20:00,86.4,61.9,29.42,WNW,295,1.0,1.0,44,0.00,,,0.00,Wunderground v.1.15,2013-06-30 00:20:00,
2013-06-29 19:30:00,86.1,62.3,29.42,WNW,300,0.0,10.0,45,0.00,,,0.00,Wunderground v.1.15,2013-06-30 00:30:00,
2013-06-29 19:35:00,85.9,62.1,29.42,WNW,291,1.0,10.0,45,0.00,,,0.00,Wunderground v.1.15,2013-06-30 00:35:00,
2013-06-29 19:40:00,85.5,62.4,29.42,WNW,290,2.0,2.0,46,0.00,,,0.00,Wunderground v.1.15,2013-06-30 00:40:00,
2013-06-29 19:45:00,85.2,62.1,29.42,WNW,294,2.0,10.0,46,0.00,,,0.00,Wunderground v.1.15,2013-06-30 00:45:00,
2013-06-29 19:50:00,84.9,61.8,29.42,WNW,295,1.0,1.0,46,0.00,,,0.00,Wunderground v.1.15,2013-06-30 00:50:00,
2013-06-29 19:55:00,84.6,61.5,29.42,WNW,291,0.0,10.0,46,0.00,,,0.00,Wunderground v.1.15,2013-06-30 00:55:00,
2013-06-29 20:00:00,84.3,61.9,29.42,WNW,291,0.0,10.0,47,0.00,,,0.00,Wunderground v.1.15,2013-06-30 01:00:00,
2013-06-29 20:05:00,83.9,61.5,29.42,WNW,291,0.0,10.0,47,0.00,,,0.00,Wunderground v.1.15,2013-06-30 01:05:00,
2013-06-29 20:10:00,83.6,61.8,29.42,WNW,294,0.0,10.0,48,0.00,,,0.00,Wunderground v.1.15,2013-06-30 01:10:00,
2013-06-29 20:20:00,83.0,61.9,29.42,WNW,294,0.0,10.0,49,0.00,,,0.00,Wunderground v.1.15,2013-06-30 01:20:00,
2013-06-29 20:30:00,82.5,61.4,29.42,WNW,294,0.0,10.0,49,0.00,,,0.00,Wunderground v.1.15,2013-06-30 01:30:00,
2013-06-29 20:35:00,82.3,61.8,29.42,WNW,294,0.0,10.0,50,0.00,,,0.00,Wunderground v.1.15,2013-06-30 01:35:00,
2013-06-29 20:40:00,82.0,61.5,29.42,WNW,294,0.0,10.0,50,0.00,,,0.00,Wunderground v.1.15,2013-06-30 01:40:00,
2013-06-29 20:45:00,81.8,61.9,29.43,WNW,294,0.0,10.0,51,0.00,,,0.00,Wunderground v.1.15,2013-06-30 01:45:00,
2013-06-29 20:55:00,81.5,61.6,29.43,WNW,294,0.0,10.0,51,0.00,,,0.00,Wunderground v.1.15,2013-06-30 01:55:00,
2013-06-29 21:00:00,81.4,61.5,29.44,WNW,294,1.0,10.0,51,0.00,,,0.00,Wunderground v.1.15,2013-06-30 02:00:00,
2013-06-29 21:05:00,81.2,61.4,29.44,WNW,294,1.0,10.0,51,0.00,,,0.00,Wunderground v.1.15,2013-06-30 02:05:00,
2013-06-29 21:10:00,81.1,61.8,29.44,WNW,294,1.0,10.0,52,0.00,,,0.00,Wunderground v.1.15,2013-06-30 02:10:00,
2013-06-29 21:15:00,81.0,61.7,29.44,WNW,297,1.0,10.0,52,0.00,,,0.00,Wunderground v.1.15,2013-06-30 02:15:00,
2013-06-29 21:25:00,80.9,61.6,29.44,WNW,297,0.0,10.0,52,0.00,,,0.00,Wunderground v.1.15,2013-06-30 02:25:00,
2013-06-29 21:35:00,80.7,62.0,29.44,WNW,298,0.0,10.0,53,0.00,,,0.00,Wunderground v.1.15,2013-06-30 02:35:00,
2013-06-29 21:40:00,80.6,61.3,29.44,WNW,297,0.0,10.0,52,0.00,,,0.00,Wunderground v.1.15,2013-06-30 02:40:00,
2013-06-29 21:45:00,80.5,61.8,29.45,WNW,297,0.0,10.0,53,0.00,,,0.00,Wunderground v.1.15,2013-06-30 02:45:00,
2013-06-29 21:50:00,80.4,61.7,29.45,WNW,296,0.0,10.0,53,0.00,,,0.00,Wunderground v.1.15,2013-06-30 02:50:00,
2013-06-29 21:55:00,80.3,61.6,29.45,WNW,297,0.0,10.0,53,0.00,,,0.00,Wunderground v.1.15,2013-06-30 02:55:00,
2013-06-29 22:05:00,80.1,61.4,29.44,WNW,299,1.0,10.0,53,0.00,,,0.00,Wunderground v.1.15,2013-06-30 03:05:00,
2013-06-29 22:10:00,80.0,61.9,29.44,WNW,299,1.0,1.0,54,0.00,,,0.00,Wunderground v.1.15,2013-06-30 03:10:00,
2013-06-29 22:20:00,79.6,61.5,29.45,WNW,299,0.0,10.0,54,0.00,,,0.00,Wunderground v.1.15,2013-06-30 03:20:00,
2013-06-29 22:25:00,79.4,61.3,29.45,WNW,299,0.0,10.0,54,0.00,,,0.00,Wunderground v.1.15,2013-06-30 03:25:00,
2013-06-29 22:30:00,79.1,61.5,29.44,WNW,299,0.0,10.0,55,0.00,,,0.00,Wunderground v.1.15,2013-06-30 03:30:00,
2013-06-29 22:40:00,78.7,61.2,29.44,WNW,299,0.0,10.0,55,0.00,,,0.00,Wunderground v.1.15,2013-06-30 03:40:00,
2013-06-29 22:45:00,78.7,61.2,29.44,WNW,300,0.0,10.0,55,0.00,,,0.00,Wunderground v.1.15,2013-06-30 03:45:00,
2013-06-29 22:50:00,78.7,61.7,29.44,WNW,299,0.0,10.0,56,0.00,,,0.00,Wunderground v.1.15,2013-06-30 03:50:00,
2013-06-29 22:55:00,78.6,61.1,29.44,WNW,295,0.0,10.0,55,0.00,,,0.00,Wunderground v.1.15,2013-06-30 03:55:00,
2013-06-29 23:00:00,78.6,61.6,29.44,WNW,295,0.0,10.0,56,0.00,,,0.00,Wunderground v.1.15,2013-06-30 04:00:00,
2013-06-29 23:05:00,78.5,61.5,29.44,WNW,295,0.0,10.0,56,0.00,,,0.00,Wunderground v.1.15,2013-06-30 04:05:00,
2013-06-29 23:10:00,78.4,61.4,29.44,WNW,295,0.0,10.0,56,0.00,,,0.00,Wunderground v.1.15,2013-06-30 04:10:00,
2013-06-29 23:15:00,78.3,61.3,29.45,NNW,345,0.0,10.0,56,0.00,,,0.00,Wunderground v.1.15,2013-06-30 04:15:00,
2013-06-29 23:20:00,78.1,62.1,29.45,North,349,1.0,10.0,58,0.00,,,0.00,Wunderground v.1.15,2013-06-30 04:20:00,
2013-06-29 23:25:00,77.7,62.2,29.45,NW,323,3.0,10.0,59,0.00,,,0.00,Wunderground v.1.15,2013-06-30 04:25:00,
2013-06-29 23:30:00,77.4,62.4,29.45,NW,323,2.0,2.0,60,0.00,,,0.00,Wunderground v.1.15,2013-06-30 04:30:00,
2013-06-29 23:35:00,77.3,62.8,29.45,North,355,0.0,10.0,61,0.00,,,0.00,Wunderground v.1.15,2013-06-30 04:35:00,
2013-06-29 23:45:00,76.9,63.3,29.45,NNE,16,0.0,10.0,63,0.00,,,0.00,Wunderground v.1.15,2013-06-30 04:45:00,
2013-06-29 23:50:00,76.6,63.1,29.45,NNE,15,0.0,10.0,63,0.00,,,0.00,Wunderground v.1.15,2013-06-30 04:50:00,
2013-06-29 23:55:00,76.5,63.4,29.45,NNE,16,0.0,10.0,64,0.00,,,0.00,Wunderground v.1.15,2013-06-30 04:55:00,